[[{"header":{"parameterUnit":"m.s-1","parameterCategory":1,"la1":30.2991,"la2":30.254,"lo1":-89.0895,"lo2":-89.0444,"dy":0.0017,"dx":0.0017,"nx":28,"ny":28,"refTime":"2025-12-05T09:00:00:Z","depth":0,"parameterNumber":2,"parameterNumberName":"U-component_of_WINDS"},"data":[0,0,0,0,0,0,0,0,0,0,0,0,0,0,0,0,0,0,0,0,0,0,0,0,0,0,0,0,0,0,0,0,0,0,0,0,0,0,0,0,0,0,0,0,0,0,0,0,0,0,0,0,0,0,0,0,0,0,0.8169,0.8169,0,0.8174,0.8174,0.8174,0.8171,0.8171,0.8171,0.8171,0.8175,0.8175,0.8175,0,0,0,0,0,0,0,0,0,0,0,0,0,0.816,0.816,0.8169,0.8169,0.8169,0.8174,0.8174,0.8174,0.8171,0.8171,0.8171,0.8171,0.8175,0.8175,0.8175,0,0,0,0,0,0,0,0,0,0,0,0,0,0.8164,0.816,0.8169,0.8169,0.8169,0.8173,0.8174,0.8174,0.8172,0.8171,0.8171,0.8171,0.8175,0.8175,0.8176,0.8181,0,0,0.8176,0.8177,0,0,0,0,0,0,0,0,0.8164,0.8164,0.8169,0.8169,0.8169,0.8172,0.8172,0.8176,0.8172,0.817,0.8171,0.8171,0.8174,0.8174,0.8176,0.8181,0.8181,0.8176,0.8177,0.8177,0.8177,0,0,0,0,0,0,0,0.8164,0.8164,0.8171,0.8169,0.8169,0.8169,0.8169,0.8173,0.8173,0.8171,0.817,0.8171,0.8174,0.8175,0.8176,0.8181,0.8176,0.8177,0.8177,0.8177,0.8192,0.8193,0,0,0,0,0,0,0.8163,0.8164,0.8171,0.8171,0.8166,0.8169,0.8169,0.8171,0.8173,0.8173,0.8171,0.8171,0.8175,0.8175,0.8176,0.8183,0.8177,0.8177,0.8177,0.8192,0.8192,0.8193,0,0,0,0,0,0,0.8163,0.8164,0.8171,0.8168,0.8168,0.8169,0.8171,0.8171,0.8172,0.8174,0.8174,0.8172,0.8175,0.8175,0.818,0.8183,0.8177,0.8178,0.8192,0.8192,0.8193,0.8196,0,0,0,0,0,0,0.8163,0.8164,0.8165,0.8168,0.8169,0.8174,0.8171,0.8171,0.8173,0.8173,0.8175,0.8175,0.8175,0.8179,0.818,0.8183,0.8178,0.8192,0.8192,0.8192,0.8196,0.8197,0.8197,0,0,0,0,0,0.8162,0.8166,0.8166,0.8166,0.8171,0.8174,0.8175,0.8175,0.8173,0.8175,0.8176,0.8175,0.8183,0.818,0.8181,0.8184,0.8191,0.8192,0.8192,0.8195,0.8196,0.8197,0,0,0,0,0,0,0.8163,0.8166,0.8166,0.817,0.8172,0.8174,0.8176,0.8176,0.8178,0.8178,0.8178,0.8178,0.8183,0.8184,0.8181,0.819,0.8187,0.8187,0.8189,0.819,0.819,0.819,0.8178,0,0,0,0,0,0.8164,0.8167,0.8169,0.8173,0.8174,0.8175,0.8177,0.8177,0.8179,0.818,0.8181,0.8183,0.8186,0.8188,0.8191,0.8196,0.8197,0.8199,0.82,0.82,0.8201,0.8205,0.8206,0.8194,0.8194,0.8194,0,0,0.8166,0.8168,0.8169,0.8173,0.8175,0.8178,0.8176,0.8179,0.8182,0.818,0.8185,0.8186,0.8188,0.8194,0.8196,0.8194,0.8204,0.8201,0.8201,0.8202,0.8205,0.8206,0.8207,0.8195,0.8195,0.8195,0,0,0.817,0.8172,0.8175,0.8177,0.818,0.8181,0.8182,0.8185,0.8186,0.819,0.819,0.8193,0.8198,0.82,0.8202,0.8209,0.8208,0.821,0.8214,0.8217,0.8218,0.8219,0.8222,0.8223,0.8211,0.8211,0.8211,0,0.8171,0.8176,0.8177,0.8181,0.8183,0.8183,0.8187,0.8188,0.8192,0.8194,0.8192,0.8199,0.8201,0.8207,0.8209,0.8211,0.8212,0.8209,0.8218,0.8219,0.822,0.8223,0.8224,0.8211,0.8211,0.8211,0.8211,0,0.8178,0.8182,0.8184,0.8188,0.8191,0.8195,0.8196,0.8199,0.8199,0.8201,0.8206,0.8208,0.8212,0.8214,0.8214,0.822,0.822,0.8218,0.8215,0.8221,0.8224,0.8225,0.8211,0.8211,0.8211,0.8211,0,0,0.8182,0.8188,0.8188,0.8191,0.8195,0.8198,0.8202,0.8206,0.8209,0.8212,0.8215,0.8221,0.822,0.8222,0.8223,0.8226,0.8233,0.8224,0.8225,0.8226,0.8241,0.8242,0.8243,0.8232,0.8233,0.8233,0.8241,0,0.8187,0.8194,0.8196,0.8202,0.8206,0.8207,0.8211,0.8214,0.8216,0.8219,0.8222,0.8225,0.8224,0.8225,0.8229,0.8231,0.8236,0.8231,0.8236,0.8236,0.8235,0.8244,0.8245,0.8252,0.8242,0.8242,0.8242,0,0.8193,0.8197,0.8204,0.8208,0.821,0.8213,0.8218,0.8222,0.8226,0.8227,0.823,0.8231,0.8236,0.8233,0.8241,0.8238,0.824,0.8242,0.8242,0.8242,0.8239,0.8245,0.8254,0.8255,0.8244,0.8244,0.8243,0,0.8195,0.8202,0.8208,0.821,0.8215,0.8218,0.822,0.8224,0.8227,0.8231,0.8233,0.8238,0.8241,0.8245,0.8247,0.8245,0.8254,0.8252,0.8256,0.8256,0.8257,0.8257,0.8267,0.8259,0.8259,0.8259,0.8259,0,0.82,0.8204,0.8209,0.8212,0.8217,0.822,0.8225,0.8228,0.8231,0.8236,0.8237,0.8241,0.8243,0.8248,0.825,0.8256,0.8257,0.8259,0.8259,0.8259,0.8258,0.826,0.8259,0.826,0.826,0.826,0.8259,0,0.8203,0.8206,0.8212,0.8218,0.8219,0.8223,0.8227,0.8231,0.8234,0.8239,0.824,0.8244,0.825,0.8253,0.826,0.8261,0.8268,0.8269,0.8267,0.8267,0.8271,0.8271,0.8282,0.8284,0.8275,0.8275,0.8275,0,0.8206,0.8209,0.8216,0.8219,0.8221,0.8226,0.8229,0.8232,0.8236,0.8242,0.8245,0.825,0.8255,0.8264,0.8268,0.8274,0.8274,0.8278,0.8274,0.8274,0.8274,0.8274,0.8274,0.8278,0.8278,0.8278,0.8278,0,0.8211,0.8212,0.8217,0.8223,0.8227,0.8231,0.8235,0.8238,0.8242,0.8246,0.8252,0.8256,0.8263,0.8269,0.8275,0.8278,0.8279,0.8279,0.8281,0.828,0.8279,0.828,0.8268,0.8279,0.8279,0.8279,0.8279,0.8279,0.8214,0.8217,0.8222,0.8228,0.8232,0.8236,0.824,0.8244,0.8249,0.8255,0.8257,0.8264,0.8269,0.8278,0.8281,0.8286,0.8286,0.8287,0.8288,0.8288,0.8288,0.8278,0.8288,0.8288,0.8288,0.8288,0.8288,0,0.8219,0.8222,0.8228,0.8234,0.8239,0.824,0.8245,0.8249,0.8255,0.826,0.8265,0.8272,0.8278,0.8283,0.829,0.8293,0.8294,0.8295,0.8295,0.8295,0.8288,0.8287,0.8294,0.8294,0.8294,0.8294,0.8294,0.8294,0.8222,0.8228,0.8231,0.8239,0.8243,0.825,0.8253,0.8257,0.8261,0.827,0.8275,0.8278,0.8284,0.8291,0.8297,0.8298,0.8301,0.8302,0.8303,0.8296,0.8296,0.8295,0.8293,0.8302,0.8302,0.831,0.831,0.831]},{"header":{"parameterUnit":"m.s-1","parameterCategory":1,"la1":30.2991,"la2":30.254,"lo1":-89.0895,"lo2":-89.0444,"dy":0.0017,"dx":0.0017,"nx":28,"ny":28,"refTime":"2025-12-05T09:00:00:Z","depth":0,"parameterNumber":3,"parameterNumberName":"V-component_of_WINDS"},"data":[0,0,0,0,0,0,0,0,0,0,0,0,0,0,0,0,0,0,0,0,0,0,0,0,0,0,0,0,0,0,0,0,0,0,0,0,0,0,0,0,0,0,0,0,0,0,0,0,0,0,0,0,0,0,0,0,0,0,-6.8006,-6.8007,0,-6.812,-6.8121,-6.8123,-6.8055,-6.8052,-6.8048,-6.8045,-6.8157,-6.8162,-6.8168,0,0,0,0,0,0,0,0,0,0,0,0,0,-6.7724,-6.7729,-6.8006,-6.8007,-6.8009,-6.812,-6.8121,-6.8123,-6.8055,-6.8051,-6.8047,-6.8044,-6.8155,-6.8162,-6.8169,0,0,0,0,0,0,0,0,0,0,0,0,0,-6.7843,-6.7731,-6.8006,-6.7989,-6.7988,-6.812,-6.8121,-6.8123,-6.8056,-6.8051,-6.8046,-6.8042,-6.8152,-6.8161,-6.817,-6.8323,0,0,-6.8197,-6.8201,0,0,0,0,0,0,0,0,-6.7836,-6.7853,-6.799,-6.799,-6.799,-6.8068,-6.8063,-6.819,-6.8057,-6.803,-6.8045,-6.804,-6.8131,-6.8141,-6.8173,-6.8328,-6.8333,-6.8198,-6.8203,-6.8207,-6.821,0,0,0,0,0,0,0,-6.7828,-6.7848,-6.8051,-6.7992,-6.7992,-6.7973,-6.7985,-6.8086,-6.8106,-6.8032,-6.8028,-6.8042,-6.813,-6.8165,-6.8175,-6.8334,-6.8198,-6.8206,-6.8211,-6.8215,-6.8619,-6.8624,0,0,0,0,0,0,-6.7822,-6.7842,-6.8047,-6.8054,-6.79,-6.7982,-6.7995,-6.8048,-6.8105,-6.8109,-6.8046,-6.8039,-6.8152,-6.8165,-6.8179,-6.8361,-6.8207,-6.8216,-6.8221,-6.8614,-6.862,-6.8626,0,0,0,0,0,0,-6.7816,-6.7841,-6.8043,-6.7947,-6.7971,-6.7993,-6.8052,-6.8053,-6.8088,-6.8116,-6.8118,-6.8079,-6.8148,-6.8166,-6.8288,-6.8364,-6.822,-6.8228,-6.8607,-6.8616,-6.8623,-6.8727,0,0,0,0,0,0,-6.7808,-6.7839,-6.7899,-6.7949,-6.7977,-6.8152,-6.8057,-6.8058,-6.8104,-6.8095,-6.8147,-6.8151,-6.8146,-6.8275,-6.8297,-6.8374,-6.8235,-6.8601,-6.8611,-6.8621,-6.8717,-6.8738,-6.8756,0,0,0,0,0,-6.7799,-6.7923,-6.7902,-6.7927,-6.8052,-6.8156,-6.8172,-6.8165,-6.811,-6.817,-6.8188,-6.8149,-6.8352,-6.8288,-6.8312,-6.8393,-6.8596,-6.8608,-6.862,-6.8709,-6.8734,-6.8755,0,0,0,0,0,0,-6.7879,-6.7929,-6.7907,-6.8051,-6.81,-6.8145,-6.8219,-6.8193,-6.8257,-6.8246,-6.8233,-6.8245,-6.8372,-6.8394,-6.8321,-6.8543,-6.8465,-6.8483,-6.8524,-6.8549,-6.8568,-6.8559,-6.8242,0,0,0,0,0,-6.7914,-6.7997,-6.8035,-6.8158,-6.8184,-6.8198,-6.8243,-6.8234,-6.8283,-6.8303,-6.833,-6.8378,-6.8452,-6.8502,-6.8572,-6.872,-6.873,-6.8788,-6.8807,-6.8823,-6.8838,-6.8917,-6.8943,-6.8666,-6.8665,-6.8665,0,0,-6.7986,-6.8024,-6.8076,-6.8175,-6.8212,-6.8296,-6.8215,-6.8307,-6.8369,-6.8316,-6.8433,-6.8455,-6.8507,-6.8643,-6.8704,-6.8665,-6.8916,-6.8838,-6.885,-6.8857,-6.8932,-6.8958,-6.8982,-6.8674,-6.8672,-6.8671,0,0,-6.8161,-6.8198,-6.8305,-6.8344,-6.8402,-6.841,-6.8436,-6.8485,-6.8497,-6.8615,-6.8577,-6.8649,-6.8778,-6.8817,-6.8854,-6.9043,-6.901,-6.9066,-6.9167,-6.9244,-6.9266,-6.9285,-6.9352,-6.9377,-6.9081,-6.9082,-6.9082,0,-6.8243,-6.837,-6.8363,-6.8459,-6.8503,-6.8461,-6.8568,-6.8605,-6.8682,-6.8713,-6.8669,-6.883,-6.8863,-6.9007,-6.9053,-6.9084,-6.9112,-6.906,-6.9264,-6.9283,-6.9301,-6.9365,-6.939,-6.9088,-6.9087,-6.9087,-6.9086,0,-6.8467,-6.8556,-6.8635,-6.8713,-6.8766,-6.8867,-6.8873,-6.8927,-6.8914,-6.8926,-6.9045,-6.9083,-6.916,-6.9193,-6.918,-6.9335,-6.931,-6.9266,-6.9186,-6.9334,-6.9394,-6.9418,-6.9097,-6.9095,-6.9093,-6.9091,0,0,-6.8696,-6.8769,-6.8798,-6.8833,-6.8893,-6.896,-6.9059,-6.9136,-6.9182,-6.9236,-6.9318,-6.9428,-6.9388,-6.9429,-6.942,-6.9488,-6.9635,-6.9435,-6.9436,-6.9471,-6.9807,-6.984,-6.9869,-6.9614,-6.9618,-6.9622,-6.9803,0,-6.8874,-6.9048,-6.9044,-6.9205,-6.9286,-6.9248,-6.9333,-6.9378,-6.9393,-6.9462,-6.9476,-6.9555,-6.9496,-6.952,-6.9586,-6.9604,-6.9703,-6.959,-6.9687,-6.9691,-6.9675,-6.99,-6.9935,-7.0104,-6.9826,-6.983,-6.9833,0,-6.9105,-6.9169,-6.9339,-6.9388,-6.9421,-6.9499,-6.9569,-6.9636,-6.9686,-6.9691,-6.9739,-6.9719,-6.9816,-6.9735,-6.9869,-6.9793,-6.9832,-6.9847,-6.9853,-6.9861,-6.9771,-6.9914,-7.0158,-7.0183,-6.987,-6.9867,-6.9864,0,-6.9254,-6.9382,-6.95,-6.9531,-6.9591,-6.9646,-6.9673,-6.9719,-6.9766,-6.9826,-6.9856,-6.9927,-6.9965,-7.002,-7.0019,-6.996,-7.0154,-7.0073,-7.016,-7.016,-7.0202,-7.0199,-7.0455,-7.0228,-7.0228,-7.0227,-7.0227,0,-6.9453,-6.9558,-6.9568,-6.9641,-6.9757,-6.9751,-6.9865,-6.9887,-6.9928,-7.0002,-6.9973,-7.0043,-7.0038,-7.0108,-7.0108,-7.0218,-7.0236,-7.0241,-7.024,-7.0244,-7.0243,-7.0269,-7.0257,-7.0234,-7.0233,-7.0231,-7.023,0,-6.9638,-6.965,-6.9776,-6.9823,-6.9837,-6.9921,-6.996,-7.0028,-7.004,-7.0134,-7.0156,-7.0174,-7.0255,-7.026,-7.0353,-7.0353,-7.0487,-7.0473,-7.0471,-7.0468,-7.0555,-7.0546,-7.0836,-7.0873,-7.0622,-7.0625,-7.0627,0,-6.9765,-6.9845,-6.9901,-6.995,-6.9981,-7.006,-7.0108,-7.0105,-7.0155,-7.0219,-7.0279,-7.0358,-7.0421,-7.0553,-7.0573,-7.0644,-7.063,-7.0727,-7.0641,-7.0642,-7.0631,-7.0626,-7.0634,-7.0743,-7.0746,-7.0748,-7.075,0,-6.9987,-6.9989,-7.006,-7.0134,-7.0192,-7.025,-7.0303,-7.0344,-7.0347,-7.0405,-7.0489,-7.0539,-7.0635,-7.0713,-7.0782,-7.0808,-7.078,-7.0778,-7.0801,-7.0806,-7.0802,-7.0805,-7.0516,-7.0771,-7.0769,-7.0767,-7.0766,-7.0765,-7.0146,-7.0216,-7.0267,-7.0347,-7.0387,-7.0438,-7.0504,-7.0525,-7.0596,-7.0675,-7.0668,-7.0761,-7.0808,-7.0899,-7.093,-7.1001,-7.0968,-7.1003,-7.1011,-7.102,-7.1029,-7.0791,-7.1014,-7.1013,-7.1013,-7.1012,-7.1012,0,-7.0367,-7.0398,-7.0472,-7.0548,-7.0611,-7.0581,-7.0638,-7.0692,-7.0775,-7.0823,-7.0886,-7.0982,-7.1058,-7.1084,-7.1158,-7.121,-7.1198,-7.1229,-7.1225,-7.1231,-7.1055,-7.1027,-7.1237,-7.1237,-7.1237,-7.1237,-7.1237,-7.1237,-7.0489,-7.0605,-7.0613,-7.0748,-7.0777,-7.087,-7.0905,-7.0951,-7.0989,-7.1098,-7.1162,-7.118,-7.1218,-7.1294,-7.1362,-7.1367,-7.1395,-7.1431,-7.1431,-7.1266,-7.1243,-7.1222,-7.1195,-7.1438,-7.1438,-7.1602,-7.1603,-7.1604]}]]